GW4803 Weather Reports


Display with metric or nautical units.
time (UTC)temp
F
wind
direction
speed
MPH
gust
MPH
rain 1hr
in
rain 24hr
in
rain mn
in
humidity
%
barometer
mb
20260507045049 51 16 6.0 8.0 0.00 0.00 0.00 63 1016.7
20260507044549 51 13 4.0 9.0 0.00 0.00 0.00 63 1016.9
20260507044047 52 5 5.0 9.0 0.00 0.00 0.00 62 1016.8
20260507043547 52 13 5.0 9.0 0.00 0.00 0.00 63 1016.7
20260507043047 52 5 6.0 9.0 0.00 0.00 0.00 63 1016.7
20260507042546 51 5 5.0 8.0 0.00 0.00 0.00 64 1016.7
20260507042046 51 9 6.0 8.0 0.00 0.00 0.00 64 1016.7
20260507041548 51 9 4.0 8.0 0.00 0.00 0.00 65 1016.7
20260507041051 50 14 4.0 8.0 0.00 0.00 0.00 66 1016.3
20260507040543 50 39 3.0 6.0 0.00 0.00 0.00 66 1016.2
20260507040044 50 51 4.0 5.0 0.00 0.00 0.00 66 1016.0
20260507035542 51 55 2.0 5.0 0.00 0.00 0.00 65 1016.0
20260507035041 51 55 4.0 5.0 0.00 0.00 0.00 65 1015.8
20260507034541 51 56 3.0 4.0 0.00 0.00 0.00 64 1015.7
20260507034040 52 56 3.0 5.0 0.00 0.00 0.00 63 1015.6
20260507033543 52 56 4.0 5.0 0.00 0.00 0.00 63 1015.6
20260507033040 52 57 3.0 5.0 0.00 0.00 0.00 62 1015.5
20260507032539 53 57 3.0 5.0 0.00 0.00 0.00 61 1015.4
20260507032038 53 58 3.0 5.0 0.00 0.00 0.00 61 1015.3
20260507031536 54 58 2.0 4.0 0.00 0.00 0.00 60 1015.1
20260507031038 54 59 2.0 6.0 0.00 0.00 0.00 60 1015.1
20260507030535 54 59 4.0 7.0 0.00 0.00 0.00 59 1015.0
20260507030034 54 59 5.0 7.0 0.00 0.00 0.00 59 1014.7
20260507025533 55 51 4.0 7.0 0.00 0.00 0.00 59 1014.6
20260507025034 55 61 4.0 8.0 0.00 0.00 0.00 58 1014.5
20260507024534 55 64 4.0 9.0 0.00 0.00 0.00 57 1014.4
20260507024035 55 66 5.0 10.0 0.00 0.00 0.00 57 1014.3
20260507023533 56 62 7.0 10.0 0.00 0.00 0.00 56 1014.0
20260507023037 56 63 6.0 8.0 0.00 0.00 0.00 55 1014.1
20260507022533 57 68 4.0 8.0 0.00 0.00 0.00 55 1014.2
20260507022034 57 71 4.0 8.0 0.00 0.00 0.00 54 1014.3
20260507021534 57 64 5.0 9.0 0.00 0.00 0.00 53 1014.2
20260507021034 58 65 6.0 10.0 0.00 0.00 0.00 53 1013.9
20260507020532 58 63 8.0 10.0 0.00 0.00 0.00 52 1013.8
20260507020043 58 57 7.0 10.0 0.00 0.00 0.00 52 1013.9
20260507015532 58 57 6.0 10.0 0.00 0.00 0.00 52 1013.8
20260507015032 58 53 5.0 10.0 0.00 0.00 0.00 52 1013.7
20260507014533 59 57 6.0 10.0 0.00 0.00 0.00 51 1013.6
20260507014032 59 51 6.0 10.0 0.00 0.00 0.00 50 1013.6
20260507013532 59 53 7.0 10.0 0.00 0.00 0.00 50 1013.4
20260507013046 60 59 7.0 12.0 0.00 0.00 0.00 49 1013.4
20260507012531 60 58 7.0 12.0 0.00 0.00 0.00 49 1013.4
20260507012032 61 55 7.0 12.0 0.00 0.00 0.00 48 1013.4
20260507011533 61 59 9.0 13.0 0.00 0.00 0.00 48 1013.3
20260507011030 61 50 9.0 13.0 0.00 0.00 0.00 47 1013.2
20260507010530 62 61 8.0 14.0 0.00 0.00 0.00 46 1013.1
20260507010035 62 51 10.0 14.0 0.00 0.00 0.00 46 1013.1
20260507005530 62 57 9.0 13.0 0.00 0.00 0.00 46 1013.1
20260507005029 62 54 8.0 12.0 0.00 0.00 0.00 46 1013.1
20260507004529 63 61 7.0 15.0 0.00 0.00 0.00 45 1013.1
20260507004029 63 34 8.0 15.0 0.00 0.00 0.00 45 1013.1
20260507003529 63 64 10.0 15.0 0.00 0.00 0.00 45 1013.0
20260507003040 63 68 11.0 15.0 0.00 0.00 0.00 45 1013.0
20260507002528 63 26 9.0 17.0 0.00 0.00 0.00 45 1012.9
20260507002030 64 64 12.0 16.0 0.00 0.00 0.00 45 1012.9
20260507001528 64 63 9.0 16.0 0.00 0.00 0.00 45 1012.9
20260507001027 64 57 11.0 15.0 0.00 0.00 0.00 45 1012.8
20260507000527 64 51 9.0 15.0 0.00 0.00 0.00 45 1012.8
20260507000033 64 29 10.0 17.0 0.00 0.00 0.00 45 1012.9
20260506235528 64 71 12.0 17.0 0.00 0.00 0.00 44 1012.9
20260506235026 64 58 8.0 15.0 0.00 0.00 0.00 45 1012.8
20260506234527 64 45 11.0 15.0 0.00 0.00 0.00 45 1012.8
20260506234026 64 25 10.0 15.0 0.00 0.00 0.00 45 1012.8
20260506233526 64 49 10.0 17.0 0.00 0.00 0.00 45 1012.7
20260506233027 65 33 12.0 17.0 0.00 0.00 0.00 44 1012.7
20260506232524 65 60 10.0 16.0 0.00 0.00 0.00 45 1012.7
20260506232024 65 59 11.0 16.0 0.00 0.00 0.00 44 1012.8
20260506231524 65 37 7.0 13.0 0.00 0.00 0.00 45 1012.8
20260506231025 65 343 10.0 17.0 0.00 0.00 0.00 44 1012.9
20260506230523 65 24 11.0 17.0 0.00 0.00 0.00 44 1012.9
20260506230023 65 54 9.0 15.0 0.00 0.00 0.00 44 1013.0
20260506225523 65 51 10.0 15.0 0.00 0.00 0.00 45 1012.8
20260506225023 65 36 10.0 15.0 0.00 0.00 0.00 45 1012.7
20260506224522 65 57 9.0 14.0 0.00 0.00 0.00 45 1012.6
20260506224025 65 55 9.0 17.0 0.00 0.00 0.00 45 1012.6
20260506223523 66 29 11.0 17.0 0.00 0.00 0.00 45 1012.6
20260506223022 65 72 11.0 16.0 0.00 0.00 0.00 45 1012.5
20260506222522 65 33 8.0 17.0 0.00 0.00 0.00 44 1012.4
20260506222026 66 56 14.0 17.0 0.00 0.00 0.00 44 1012.3
20260506221622 66 49 7.0 16.0 0.00 0.00 0.00 44 1012.3
20260506221021 66 35 10.0 17.0 0.00 0.00 0.00 44 1012.3
20260506220519 65 41 9.0 21.0 0.00 0.00 0.00 45 1012.2
20260506220019 65 57 10.0 21.0 0.00 0.00 0.00 44 1012.2
20260506215518 65 22 10.0 16.0 0.00 0.00 0.00 46 1012.3
20260506215022 65 49 5.0 18.0 0.00 0.00 0.00 45 1012.3
20260506214531 65 35 12.0 18.0 0.00 0.00 0.00 45 1012.3
20260506214018 65 49 11.0 19.0 0.00 0.00 0.00 45 1012.4
20260506213519 65 57 14.0 19.0 0.00 0.00 0.00 45 1012.5
20260506213020 65 5 12.0 20.0 0.00 0.00 0.00 46 1012.5
20260506212517 65 68 12.0 20.0 0.00 0.00 0.00 44 1012.4
20260506212017 65 61 9.0 15.0 0.00 0.00 0.00 45 1012.4
20260506211517 65 34 12.0 17.0 0.00 0.00 0.00 45 1012.6
20260506211016 65 21 12.0 17.0 0.00 0.00 0.00 45 1012.5
20260506210515 65 14 10.0 20.0 0.00 0.00 0.00 46 1012.5
20260506210019 65 54 14.0 20.0 0.00 0.00 0.00 45 1012.5
20260506205514 65 67 15.0 18.0 0.00 0.00 0.00 45 1012.6
20260506205015 65 34 12.0 19.0 0.00 0.00 0.00 45 1012.6
20260506204515 65 355 15.0 20.0 0.00 0.00 0.00 44 1012.7
20260506204016 65 49 13.0 18.0 0.00 0.00 0.00 46 1012.7
20260506203514 65 355 7.0 18.0 0.00 0.00 0.00 45 1012.8
20260506203018 65 30 12.0 20.0 0.00 0.00 0.00 45 1012.9
20260506202513 65 42 13.0 20.0 0.00 0.00 0.00 46 1012.9
20260506202012 65 5 13.0 19.0 0.00 0.00 0.00 46 1013.0
20260506201514 64 17 13.0 22.0 0.00 0.00 0.00 46 1012.9
20260506201016 64 70 11.0 23.0 0.00 0.00 0.00 46 1013.0
20260506200511 65 54 15.0 22.0 0.00 0.00 0.00 45 1013.1
20260506200012 64 32 10.0 17.0 0.00 0.00 0.00 47 1013.1
20260506195510 64 45 10.0 25.0 0.00 0.00 0.00 46 1013.1
20260506195009 64 55 14.0 25.0 0.00 0.00 0.00 48 1013.1
20260506194511 64 34 9.0 20.0 0.00 0.00 0.00 47 1013.2
20260506194007 64 63 9.0 16.0 0.00 0.00 0.00 48 1013.1
20260506193508 63 47 10.0 19.0 0.00 0.00 0.00 50 1013.1
20260506193008 62 74 12.0 19.0 0.00 0.00 0.00 49 1013.2
20260506192507 63 63 11.0 18.0 0.00 0.00 0.00 48 1013.2
20260506192007 63 40 13.0 18.0 0.00 0.00 0.00 49 1013.2
20260506191506 63 24 12.0 17.0 0.00 0.00 0.00 48 1013.2
20260506191007 63 80 11.0 17.0 0.00 0.00 0.00 49 1013.1
20260506190505 63 47 10.0 21.0 0.00 0.00 0.00 51 1013.2
20260506190008 62 40 14.0 21.0 0.00 0.00 0.00 50 1013.4
20260506185502 62 32 9.0 18.0 0.00 0.00 0.00 53 1013.4
20260506185002 62 55 11.0 20.0 0.00 0.00 0.00 51 1013.4
20260506184502 62 82 13.0 20.0 0.00 0.00 0.00 52 1013.6
20260506184001 61 49 11.0 20.0 0.00 0.00 0.00 52 1013.7
20260506183501 61 51 11.0 20.0 0.00 0.00 0.00 52 1013.7
20260506183105 61 64 12.0 19.0 0.00 0.00 0.00 54 1013.8
20260506182559 61 56 11.0 18.0 0.00 0.00 0.00 54 1013.7
20260506182057 60 77 10.0 16.0 0.00 0.00 0.00 54 1013.8
20260506181622 60 30 11.0 18.0 0.00 0.00 0.00 55 1014.0
20260506181056 60 63 8.0 19.0 0.00 0.00 0.00 55 1014.1
20260506180557 60 88 13.0 20.0 0.00 0.00 0.00 56 1014.0
20260506180055 59 88 10.0 20.0 0.00 0.00 0.00 55 1014.1
20260506175554 60 69 11.0 20.0 0.00 0.00 0.00 55 1014.2
20260506175054 59 107 11.0 20.0 0.00 0.00 0.00 56 1014.2
20260506174553 59 90 10.0 19.0 0.00 0.00 0.00 58 1014.3
20260506174052 59 55 12.0 19.0 0.00 0.00 0.00 58 1014.4
20260506173551 58 66 10.0 18.0 0.00 0.00 0.00 60 1014.4
20260506173059 58 91 12.0 18.0 0.00 0.00 0.00 59 1014.5
20260506172549 58 108 10.0 16.0 0.00 0.00 0.00 60 1014.5
20260506172049 58 69 9.0 18.0 0.00 0.00 0.00 59 1014.5
20260506171548 58 65 12.0 18.0 0.00 0.00 0.00 59 1014.6
20260506171048 58 98 10.0 18.0 0.00 0.00 0.00 60 1014.6
20260506170547 58 64 9.0 18.0 0.00 0.00 0.00 61 1014.7
20260506170049 57 71 14.0 19.0 0.00 0.00 0.00 62 1014.7
20260506165545 57 92 10.0 20.0 0.00 0.00 0.00 61 1014.6
20260506165045 57 86 12.0 20.0 0.00 0.00 0.00 63 1014.5
20260506164547 56 66 13.0 20.0 0.00 0.00 0.00 62 1014.5
20260506164043 56 57 10.0 20.0 0.00 0.00 0.00 62 1014.4
20260506163543 56 77 11.0 22.0 0.00 0.00 0.00 63 1014.6
20260506163043 56 92 14.0 22.0 0.00 0.00 0.00 64 1014.5
20260506162540 56 69 10.0 19.0 0.00 0.00 0.00 63 1014.5
20260506162040 56 65 14.0 21.0 0.00 0.00 0.00 64 1014.5
20260506161539 56 95 12.0 21.0 0.00 0.00 0.00 63 1014.5
20260506161039 55 74 12.0 23.0 0.00 0.00 0.00 63 1014.6
20260506160538 55 57 15.0 23.0 0.00 0.00 0.00 64 1014.6
20260506160037 55 71 15.0 21.0 0.00 0.00 0.00 65 1014.7
20260506155538 55 87 15.0 21.0 0.00 0.00 0.00 64 1014.6
20260506155035 54 24 13.0 20.0 0.00 0.00 0.00 65 1014.5
20260506154535 55 44 14.0 21.0 0.00 0.00 0.00 65 1014.5
20260506154034 54 76 15.0 22.0 0.00 0.00 0.00 66 1014.6
20260506153532 54 80 16.0 22.0 0.00 0.00 0.00 66 1014.5
20260506153036 53 52 14.0 22.0 0.00 0.00 0.00 67 1014.4
20260506152530 53 59 14.0 22.0 0.00 0.00 0.00 69 1014.4
20260506152031 53 57 17.0 22.0 0.00 0.00 0.00 67 1014.6
20260506151531 53 70 16.0 22.0 0.00 0.00 0.00 68 1014.6
20260506151033 53 80 15.0 20.0 0.00 0.00 0.00 67 1014.6
20260506150530 53 63 15.0 22.0 0.00 0.00 0.00 67 1014.5
20260506150032 53 53 15.0 24.0 0.00 0.00 0.00 67 1014.3
20260506145527 53 102 15.0 24.0 0.00 0.00 0.00 68 1014.2
20260506145025 52 65 17.0 24.0 0.00 0.00 0.00 69 1014.2
20260506144526 52 63 19.0 24.0 0.00 0.00 0.00 70 1014.1
20260506144023 52 61 18.0 24.0 0.00 0.00 0.00 70 1014.0
20260506143522 52 65 16.0 24.0 0.00 0.00 0.00 70 1013.9
20260506143022 51 54 17.0 24.0 0.00 0.00 0.00 72 1013.7
20260506142519 51 46 19.0 24.0 0.00 0.00 0.00 72 1013.7
20260506142017 51 63 17.0 23.0 0.00 0.00 0.00 72 1013.6
20260506141517 50 55 17.0 24.0 0.00 0.00 0.00 73 1013.6
20260506141018 50 49 16.0 24.0 0.00 0.00 0.00 73 1013.6
20260506140516 50 66 16.0 22.0 0.00 0.00 0.00 73 1013.5
20260506140017 50 65 14.0 26.0 0.00 0.00 0.00 74 1013.4
20260506135514 50 65 19.0 26.0 0.00 0.00 0.00 74 1013.4
20260506135115 50 62 16.0 22.0 0.00 0.00 0.00 75 1013.4
20260506134514 49 46 16.0 27.0 0.00 0.00 0.00 75 1013.4
20260506134019 49 62 16.0 23.0 0.00 0.00 0.00 75 1013.4
20260506133514 49 57 15.0 24.0 0.00 0.00 0.00 75 1013.3
20260506133014 49 54 17.0 24.0 0.00 0.00 0.00 75 1013.3
20260506132513 49 48 16.0 21.0 0.00 0.00 0.00 76 1013.4
20260506132013 49 51 15.0 21.0 0.00 0.00 0.00 76 1013.4
20260506131523 49 49 12.0 23.0 0.00 0.00 0.00 76 1013.5
20260506131014 49 49 18.0 23.0 0.00 0.00 0.00 76 1013.5
20260506130514 49 46 14.0 20.0 0.00 0.00 0.00 77 1013.4
20260506130012 49 54 11.0 20.0 0.00 0.00 0.00 77 1013.4
20260506125512 49 34 13.0 20.0 0.00 0.00 0.00 77 1013.4
20260506125011 49 31 12.0 18.0 0.00 0.00 0.00 78 1013.3
20260506124511 49 50 10.0 17.0 0.00 0.00 0.00 78 1013.3
20260506124015 49 48 12.0 17.0 0.00 0.00 0.00 79 1013.4
20260506123511 48 51 9.0 17.0 0.00 0.00 0.00 79 1013.3
20260506123010 48 46 12.0 17.0 0.00 0.00 0.00 80 1013.3
20260506122510 48 32 11.0 15.0 0.00 0.00 0.00 80 1013.3
20260506122010 48 24 10.0 13.0 0.00 0.00 0.00 81 1013.3
20260506121508 47 24 10.0 13.0 0.00 0.00 0.00 81 1013.2
20260506121009 47 33 8.0 13.0 0.00 0.00 0.00 81 1013.2
20260506120508 47 44 9.0 12.0 0.00 0.00 0.00 81 1013.1
20260506120015 47 42 8.0 12.0 0.00 0.00 0.00 81 1013.0
20260506115506 47 43 8.0 12.0 0.00 0.00 0.00 81 1012.8
20260506115004 47 57 8.0 11.0 0.00 0.00 0.00 81 1012.6
20260506114511 47 42 7.0 11.0 0.00 0.00 0.00 81 1012.6
20260506114003 47 46 7.0 12.0 0.00 0.00 0.00 80 1012.5
20260506113503 47 51 7.0 13.0 0.00 0.00 0.00 80 1012.2
20260506113008 47 55 9.0 13.0 0.00 0.00 0.00 80 1012.0
20260506112501 47 53 9.0 13.0 0.00 0.00 0.00 80 1012.0
20260506112001 47 59 7.0 13.0 0.00 0.00 0.00 80 1011.9
20260506111501 47 57 7.0 12.0 0.00 0.00 0.00 79 1012.0
20260506111101 47 59 7.0 12.0 0.00 0.00 0.00 79 1012.0
20260506110600 47 44 8.0 13.0 0.00 0.00 0.00 79 1012.1
20260506110100 48 49 8.0 14.0 0.00 0.00 0.00 78 1011.9
20260506105559 48 54 7.0 14.0 0.00 0.00 0.00 78 1011.8
20260506105100 48 50 9.0 13.0 0.00 0.00 0.00 78 1011.6
20260506104601 48 55 9.0 15.0 0.00 0.00 0.00 77 1011.8
20260506104058 48 54 13.0 20.0 0.00 0.00 0.00 77 1011.4
20260506103557 48 58 12.0 17.0 0.00 0.00 0.00 77 1011.3
20260506103057 48 48 12.0 17.0 0.00 0.00 0.00 76 1011.1
20260506102556 48 42 11.0 16.0 0.00 0.00 0.00 76 1011.4
20260506102055 48 62 10.0 16.0 0.00 0.00 0.00 75 1011.8
20260506102026 48 57 11.0 16.0 0.00 0.00 0.00 75 1011.7
20260506101654 49 46 10.0 16.0 0.00 0.00 0.00 75 1011.8
20260506101053 49 47 11.0 18.0 0.00 0.00 0.00 74 1011.5
20260506100553 49 52 14.0 18.0 0.00 0.00 0.00 73 1011.6
20260506100051 49 34 12.0 17.0 0.00 0.00 0.00 72 1011.8
20260506095552 49 59 10.0 15.0 0.00 0.00 0.00 72 1011.9
20260506095051 49 38 10.0 16.0 0.00 0.00 0.00 71 1012.2
20260506094551 49 42 13.0 18.0 0.00 0.00 0.00 71 1012.3
20260506094050 49 40 11.0 18.0 0.00 0.00 0.00 71 1012.4
20260506093550 49 44 10.0 16.0 0.00 0.00 0.00 71 1012.5
20260506093049 49 58 8.0 14.0 0.00 0.00 0.00 70 1012.1
20260506092548 49 42 10.0 16.0 0.00 0.00 0.00 70 1011.8
20260506092047 49 57 11.0 16.0 0.00 0.00 0.00 69 1011.8
20260506091553 49 51 12.0 16.0 0.00 0.00 0.00 69 1011.7
20260506091046 50 61 9.0 15.0 0.00 0.00 0.00 69 1011.8
20260506090548 50 59 9.0 16.0 0.00 0.00 0.00 69 1011.6
20260506090053 50 56 10.0 18.0 0.00 0.00 0.00 68 1011.7
20260506085544 49 61 13.0 18.0 0.00 0.00 0.00 68 1011.3
20260506085045 50 57 12.0 16.0 0.00 0.00 0.00 67 1011.2
20260506084547 50 55 13.0 16.0 0.00 0.00 0.00 67 1011.1
20260506084043 50 47 9.0 17.0 0.00 0.00 0.00 66 1011.2
20260506083543 50 49 12.0 17.0 0.00 0.00 0.00 66 1010.9
20260506083043 50 34 10.0 18.0 0.00 0.00 0.00 66 1011.1
20260506082543 50 48 11.0 15.0 0.00 0.00 0.00 66 1011.0
20260506082041 49 57 11.0 17.0 0.00 0.00 0.00 65 1011.1
20260506081540 49 65 11.0 15.0 0.00 0.00 0.00 66 1010.9
20260506081041 49 57 10.0 16.0 0.00 0.00 0.00 66 1010.9
20260506080540 49 63 9.0 16.0 0.00 0.00 0.00 67 1010.9
20260506073033 49 27 14.0 19.0 0.00 0.00 0.00 68 1009.8
20260506072534 49 48 12.0 18.0 0.00 0.00 0.00 68 1009.8
20260506072030 49 43 14.0 18.0 0.00 0.00 0.00 68 1009.5
20260506071531 49 49 12.0 16.0 0.00 0.00 0.00 68 1009.4
20260506071031 49 73 11.0 18.0 0.00 0.00 0.00 68 1009.3
20260506070530 49 58 14.0 23.0 0.00 0.00 0.00 68 1009.1
20260506062025 50 50 12.0 20.0 0.00 0.00 0.00 72 1009.2
20260506061524 50 71 11.0 21.0 0.00 0.00 0.00 72 1009.1
20260506061024 49 62 13.0 22.0 0.00 0.00 0.00 72 1009.2
20260506060523 49 63 13.0 22.0 0.00 0.00 0.00 73 1009.3
20260506051015 50 67 16.0 21.0 0.00 0.00 0.00 77 1009.1
20260506050514 50 49 14.0 22.0 0.00 0.00 0.00 77 1009.2